Location: Newark
(39.2833°N, 16.3333°E)
Time: 02:13:45
(UTC+00:00)

LightSail 2 - Pass Details

Date: 21 October 2019
Orbit: 698 x 729 km, 24.0° (Epoch: 22 November)

Event Time Altitude Azimuth Distance (km) Brightness Sun altitude
Rises 16:39:12 0° 241° (WSW) 3,067 10.0 -6.8°
Reaches altitude 10° 16:44:01 10° 201° (SSW) 2,155 8.0 -7.7°
Maximum altitude 16:44:49 10° 192° (SSW) 2,132 7.9 -7.8°
Drops below altitude 10° 16:45:38 10° 183° (S) 2,158 7.8 -8.0°
Sets 16:50:28 0° 142° (SE) 3,084 8.1 -8.9°
